Flag for Norway Weather past 2 weeks in Vadsø, Norway

Now
43 °F

Broken clouds.


Feels Like: 35 °F
Forecast: 42 / 47 °F
Wind: 15 mph from North

Location: Kirkenes Lufthavn

Current Time: Jul 4, 2015 at 11:41:34 PM

Latest Report: Jul 4, 2015 at 10:50 PM


Visibility: N/A

Pressure: 30.07 "Hg

Humidity: 76%

Dew point: 36 °F

Location of VadsøLocation

Historic Weather in Vadsø — Graph

°F

Vadsø temperature yesterday

Maximum temperature yesterday: 55 °F (at 11:50 AM)
Minimum temperature yesterday: 45 °F (at 10:50 PM)
Average temperature yesterday: 50 °F

Past Weeks' High & Low Weather Summary

 TemperatureHumidityPressure
High72 °F (Jun 23, 12:50 PM)100% (Jun 25, 6:20 AM)30.27 "Hg (Jun 25, 6:20 AM)
Low39 °F (Jun 20, 12:50 AM)25% (Jun 23, 2:20 PM)29.59 "Hg (Jun 25, 12:50 PM)
Average50 °F76%29.93 "Hg
* Reported Jun 19 10:20 PM — Jul 4 10:20 PM, Vadsø, Weather by CustomWeather, © 2015

Note: Actual official high and low records may vary slightly from our data, if they occured in-between our weather recording intervals... More about our weather records

Advertising

Vadsø weather history for previous 24 hours

 ConditionsComfort  
Time TempWeatherWind HumidityBarometerVisibility
10:20 PM
Sat, Jul 4
43 °FCloudy.16 mph76%30.07 "HgN/A
9:50 PM45 °FPartly sunny.15 mph71%30.07 "HgN/A
9:20 PM45 °FMostly cloudy.13 mph71%30.07 "HgN/A
8:50 PM45 °FPartly sunny.14 mph71%30.07 "HgN/A
8:20 PM45 °FBroken clouds.13 mph76%30.07 "HgN/A
7:50 PM45 °FBroken clouds.15 mph71%30.07 "HgN/A
7:20 PM45 °FMostly cloudy.13 mph76%30.07 "HgN/A
6:50 PM46 °FBroken clouds.13 mph71%30.07 "HgN/A
6:20 PM45 °FMostly cloudy.12 mph81%30.07 "HgN/A
5:50 PM45 °FLight rain. Broken clouds.14 mph81%30.07 "HgN/A
5:20 PM48 °FBroken clouds.12 mph66%30.07 "HgN/A
4:50 PM48 °FBroken clouds.10 mph71%30.07 "HgN/A
4:20 PM48 °FBroken clouds.10 mph66%30.04 "HgN/A
3:50 PM50 °FBroken clouds.8 mph62%30.04 "HgN/A
3:20 PM52 °FScattered clouds.9 mph58%30.04 "HgN/A
2:20 PM50 °FScattered clouds.10 mph62%30.04 "HgN/A
1:50 PM50 °FScattered clouds.9 mph62%30.04 "HgN/A
1:20 PM50 °FScattered clouds.12 mph67%30.04 "HgN/A
12:50 PM50 °FScattered clouds.10 mph62%30.04 "HgN/A
12:20 PM50 °FPartly sunny.13 mph67%30.04 "HgN/A
11:50 AM50 °FScattered showers. Partly sunny.6 mph62%30.04 "HgN/A
11:20 AM48 °FPartly sunny.5 mph71%30.04 "HgN/A
10:50 AM46 °FPartly sunny.7 mph82%30.04 "HgN/A
10:20 AM46 °FScattered showers. Broken clouds.13 mph82%30.04 "HgN/A
9:50 AM46 °FScattered showers. Partly sunny.9 mph82%30.04 "HgN/A
9:20 AM45 °FRain showers. Broken clouds.13 mph87%30.04 "Hg6 mi
8:50 AM46 °FSprinkles. Partly sunny.9 mph76%30.04 "HgN/A
8:20 AM46 °FSprinkles. Partly sunny.10 mph76%30.04 "HgN/A
7:50 AM46 °FPartly sunny.12 mph71%30.04 "HgN/A
7:20 AM46 °FOvercast.7 mph76%30.04 "HgN/A
6:50 AM45 °FOvercast.7 mph81%30.04 "HgN/A
6:20 AM45 °FOvercast.8 mph76%30.04 "HgN/A
5:50 AM45 °FMostly cloudy.7 mph76%30.04 "HgN/A
5:20 AM45 °FMostly cloudy.6 mph76%30.04 "HgN/A
4:50 AM45 °FBroken clouds.9 mph81%30.04 "HgN/A
4:20 AM45 °FPartly sunny.5 mph81%30.04 "HgN/A
3:50 AM45 °FOvercast.3 mph76%30.04 "HgN/A
3:20 AM43 °FPassing clouds.5 mph81%30.04 "HgN/A
2:50 AM43 °FQuite cool.5 mph81%30.04 "HgN/A
2:20 AM45 °FScattered clouds.6 mph76%30.04 "HgN/A
1:50 AM45 °FOvercast.5 mph76%30.04 "HgN/A
1:20 AM43 °FPartly sunny.6 mph81%30.04 "HgN/A
12:50 AM43 °FPassing clouds.5 mph81%30.04 "HgN/A
12:20 AM43 °FPassing clouds.6 mph81%30.04 "HgN/A
11:50 PM
Fri, Jul 3
45 °FPassing clouds.10 mph76%30.04 "HgN/A
11:20 PM45 °FPassing clouds.10 mph71%30.04 "HgN/A
Weather by CustomWeather, © 2015

See weather overviewHow to use our weather pages